Regional Weather Roundup
Issued by NWS Memphis, TN

Home | Current Version | Previous Version | Text Only | Print | Product List | Glossary On
Versions: 1 2 3 4 5 6 7 8 9 10 11 12 13 14 15 16 17 18 19 20 21 22 23 24 25 26 27 28 29 30 31 32 33 34 35 36 37 38 39 40 41 42 43 44 45 46 47 48 49 50
000
ASUS44 KMEG 291110
RWRMEG
MEMPHIS CWA HOURLY WEATHER ROUNDUP
NATIONAL WEATHER SERVICE MEMPHIS TN
500 AM CST THU JAN 29 2015

...WEST TENNESSEE...

CITY           SKY/WX    TMP DP  RH WIND       PRES   REMARKS
MEMPHIS INTL   CLOUDY    57  40  52 SW18G28   30.01F
NWS MEMPHIS      N/A     58 N/A N/A MISG        N/A
JACKSON        CLOUDY    55  36  48 S20G31    29.99F
LEXINGTON      CLOUDY    48  34  57 S14       30.02S
SAVANNAH       CLOUDY    48  36  61 S14       30.08S
DYERSBURG      CLOUDY    55  32  41 SW9       29.98R
UNION CITY     CLEAR     52  37  58 S13       29.93S
PARIS          CLEAR     50  34  53 S15       29.96S


...EASTERN ARKANSAS...

CITY           SKY/WX    TMP DP  RH WIND       PRES   REMARKS
JONESBORO      CLOUDY    52  43  71 SW16      29.96R
WEST MEMPHIS   CLOUDY    55  42  61 S15G23    30.00S
BATESVILLE     MOCLDY    54  43  66 W13       29.96R
NEWPORT        CLOUDY    54  43  66 SW13      29.98R
WALNUT RIDGE   PTCLDY    52  39  62 SW16      29.92F
BLYTHEVILLE    CLOUDY    54  41  61 SW21G31   29.96R
SEARCY         MOCLDY    55  43  63 SW7       30.01R
STUTTGART      MOCLDY    55  43  62 SW14      30.02F
PINE BLUFF     PTCLDY    55  43  63 SW13      30.05R
MONTICELLO     MOCLDY    56  45  66 SW9       30.08R


...NORTH MISSISSIPPI...

CITY           SKY/WX    TMP DP  RH WIND       PRES   REMARKS
TUPELO         CLOUDY    46  32  58 SW9       30.12S
OXFORD         CLOUDY    50  37  62 S8        30.10S
OLIVE BRANCH   MOCLDY    55  41  58 S24G31    30.03F
TUNICA         CLOUDY    54  43  66 S13G18    30.05F
CLARKSDALE     CLOUDY    54  45  71 S15       30.07S
CORINTH        CLOUDY    48  34  57 S14       30.08F
GRENADA        MOCLDY    54  34  47 SW6       30.11S
GREENWOOD      MOCLDY    54  35  48 S14       30.11F
COLUMBUS       MOCLDY    45  31  58 S8        30.17F
STARKVILLE     FAIR      45  34  65 S3        30.17R
GOLDEN TRIANGL MOCLDY    45  30  57 S13       30.15F


...SOUTHEAST MISSOURI...

CITY           SKY/WX    TMP DP  RH WIND       PRES   REMARKS
WEST PLAINS    CLEAR     49  40  71 W10       29.93R
POPLAR BLUFF   PTCLDY    49  40  71 SW10      29.89S


...NORTHWEST ALABAMA...

CITY           SKY/WX    TMP DP  RH WIND       PRES   REMARKS
MUSCLE SHOALS  PTCLDY    49  29  46 S10       30.12F


...MIDDLE TENNESSEE...

CITY           SKY/WX    TMP DP  RH WIND       PRES   REMARKS
NASHVILLE      CLOUDY    49  29  46 S17       30.06F
CLARKSVILLE    CLOUDY    50  34  54 S15       29.96F
COLUMBIA       CLOUDY    48  30  49 S13       30.06S


...WESTERN KENTUCKY...

CITY           SKY/WX    TMP DP  RH WIND       PRES   REMARKS
PADUCAH        CLOUDY    52  36  54 SW14      29.89S
FORT CAMPBELL  CLOUDY    51  33  48 S18G25    29.95F


...CENTRAL ARKANSAS...

CITY           SKY/WX    TMP DP  RH WIND       PRES   REMARKS
LITTLE ROCK    PTCLDY    56  41  57 SW14G22   30.01S


SKY/WX REPORTED AS FAIR MEANS FEW OR NO CLOUDS BELOW
12 THOUSAND FEET.




USA.gov is the U.S. government's official web portal to all federal, state and local government web resources and services.